Weather History for Alamosa, CO

Change the Weather History Date:

Tuesday, July 2, 2013

  Actual Average Record
Temperature  
Mean Temperature 64 °F 64 °F  
Max Temperature 83 °F 82 °F 92 °F (2002)
Min Temperature 45 °F 45 °F 30 °F (1997)
Degree Days  
Heating Degree Days 1 2  
Month to date heating degree days 5 4  
Since 1 June heating degree days 107 172  
Since 1 July heating degree days 5 4  
Cooling Degree Days 0 1  
Month to date cooling degree days 0 2  
Year to date cooling degree days 16 8  
Since 1 June cooling degree days 16 8  
Growing Degree Days 14 (Base 50)    
Moisture  
Dew Point 44 °F    
Average Humidity 57    
Maximum Humidity 93    
Minimum Humidity 20    
Precipitation  
Precipitation T in 0.03 in 0.31 in (2006)
Month to date precipitation 0.14 0.05  
Year to date precipitation 1.75 2.76  
Snow  
Snow 0.00 in 0.00 in 0.00 in (2002)
Month to date snowfall 0.0 0.0  
Since 1 June snowfall 0.0 0.0  
Since 1 July snowfall 0.0 0.0  
Snow Depth 0.00 in    
Sea Level Pressure  
Sea Level Pressure 30.10 in    
Wind  
Wind Speed 8 mph (SE)    
Max Wind Speed 26 mph    
Max Gust Speed 33 mph    
Visibility 10 miles    
Events Thunderstorm    
T = Trace of Precipitation, MM = Missing Value Source: NWS Daily Summary

Daily Weather History Graph

Daily Weather History Graph

Search for Another Location

Airport:

Trip Planner

Search our weather history database for the weather conditions in past years. The results will help you decide how hot, cold, wet, or windy it might be!

Date:

Astronomy

Jul. 02, 2013 Rise Set
Actual Time 5:46 AM MDT 8:28 PM MDT
Civil Twilight 5:15 AM MDT 8:59 PM MDT
Nautical Twilight 4:37 AM MDT 9:37 PM MDT
Astronomical Twilight 3:53 AM MDT 10:20 PM MDT
Moon 1:47 AM MDT (7/2) 3:47 PM MDT (7/2)
Length of Visible Light 15h 43m
Length of Day
14h 41m
Waning Crescent, 26% of the Moon is Illuminated
Jul 2
Waning Crescent
Jul 8
New
Jul 15
First Quarter
Jul 22
Full
Jul 29
Last Quarter

Hourly Weather History & Observations

Time (MDT) Temp. Windchill Dew Point Humidity Pressure Visibility Wind Dir Wind Speed Gust Speed Precip Events Conditions
12:52 AM 52.0 °F - 48.9 °F 89% 30.15 in 10.0 mi SSW 5.8 mph - N/A   Clear
1:52 AM 52.0 °F - 48.9 °F 89% 30.12 in 10.0 mi SSW 8.1 mph - N/A   Clear
2:52 AM 50.0 °F - 46.9 °F 89% 30.14 in 10.0 mi SW 5.8 mph - N/A   Clear
3:52 AM 48.0 °F - 45.0 °F 89% 30.13 in 10.0 mi SE 4.6 mph - N/A   Clear
4:52 AM 46.0 °F 44.8 °F 44.1 °F 93% 30.15 in 10.0 mi South 3.5 mph - N/A   Clear
5:52 AM 45.0 °F 43.5 °F 44.1 °F 97% 30.19 in 8.0 mi East 3.5 mph - N/A   Clear
6:52 AM 48.9 °F - 46.9 °F 93% 30.19 in 10.0 mi Calm Calm - N/A   Clear
8:52 AM 57.9 °F - 51.1 °F 78% 30.20 in 10.0 mi South 6.9 mph - N/A   Clear
9:52 AM 61.0 °F - 51.1 °F 70% 30.17 in 10.0 mi Variable 4.6 mph - N/A   Clear
10:52 AM 64.0 °F - 48.9 °F 58% 30.16 in 10.0 mi Calm Calm - N/A   Clear
11:52 AM 66.9 °F - 48.0 °F 51% 30.13 in 10.0 mi ESE 4.6 mph - N/A   Clear
12:52 PM 72.0 °F - 46.0 °F 40% 30.09 in 10.0 mi Variable 3.5 mph - N/A   Clear
1:52 PM 75.9 °F - 44.1 °F 32% 30.04 in 10.0 mi Variable 3.5 mph - N/A   Clear
2:52 PM 77.0 °F - 41.0 °F 28% 30.00 in 10.0 mi Variable 3.5 mph - N/A   Clear
3:52 PM 80.1 °F - 37.0 °F 21% 29.96 in 10.0 mi ENE 12.7 mph 17.3 mph N/A   Clear
4:52 PM 80.1 °F - 35.1 °F 20% 29.96 in 10.0 mi ESE 11.5 mph 19.6 mph N/A   Partly Cloudy
5:52 PM 72.0 °F - 39.9 °F 31% 30.00 in 10.0 mi ESE 17.3 mph 27.6 mph N/A   Scattered Clouds
6:03 PM 73.4 °F - 41.0 °F 31% 30.23 in 10.0 mi ESE 20.7 mph 27.6 mph N/A   Scattered Clouds
6:52 PM 72.0 °F - 39.9 °F 31% 29.98 in 10.0 mi East 23.0 mph 31.1 mph N/A   Clear
7:52 PM 66.9 °F - 39.0 °F 36% 30.01 in 10.0 mi ESE 15.0 mph 25.3 mph N/A   Mostly Cloudy
8:52 PM 64.0 °F - 41.0 °F 43% 30.02 in 10.0 mi ESE 13.8 mph - 0.00 in   Scattered Clouds
9:00 PM 64.4 °F - 42.8 °F 45% 30.28 in 10.0 mi ESE 8.1 mph - N/A Thunderstorm Partly Cloudy
9:52 PM 60.1 °F - 43.0 °F 53% 30.06 in 10.0 mi SSW 6.9 mph - N/A   Partly Cloudy
10:52 PM 59.0 °F - 42.1 °F 53% 30.06 in 10.0 mi SSW 11.5 mph - N/A   Clear
11:52 PM 55.9 °F - 46.9 °F 72% 30.07 in 10.0 mi South 9.2 mph - N/A   Clear